Погода в Толоне

Россия / Республика Саха (Якутия)     59°27′27″N   111°32′20″E
темп.,
°C
ветер,
м/с
пор.,
м/с
влажн.,
%
обл.,
%
осадки,
мм/ч
давл.,
гПа
погр.,
м
27 ноября, сб
сб2700:00−8з81584100 2.4 10081115
03:00−11з61385100 2.4 1017949
06:00−11зюз61287100 0.1 1023966
09:00−13зюз61186100 0.1 1026851
12:00−14зюз51086100 0.0 1029847
15:00−14зюз51086100 0.1 1031892
18:00−16зюз4118997 0.0 1035556
21:00−16зюз4119194 0.0 1036524
28 ноября, вс
вс2800:00−17юз3109282 0.0 1037362
03:00−16юз3109386 0.1 1036432
06:00−21ю2510072 0.0 103682
09:00−21ю2410096 0.0 103568
12:00−15ююз31093100 0.0 1032476
15:00−13ююз4991100 0.2 1029622
18:00−13ю31092100 0.1 1027496
21:00−14ю3893100 0.1 1025302
29 ноября, пн
пн2900:00−14ю2696100 0.1 1024208
03:00−14ю2596100 0.3 1023205
06:00−14ю2597100 0.2 1022130
09:00−14ю1398100 0.3 102274
12:00−12ююз2695100 0.1 1022201
15:00−10юз2794100 0.3 1021493
18:00−11юз2895100 0.2 1021402
21:00−10ююз3995100 0.5 1020460
30 ноября, вт
вт3000:00−9юз3995100 0.4 1018548
03:00−10з3991100 0.6 1018517
06:00−12з4989100 0.0 1020573
09:00−15зсз399198 0.1 1022504
12:00−17зюз379482 0.1 1024368
15:00−17ююз249487 0.1 1023193
18:00−19юв1199100 0.0 102228
21:00−15юв2497100 0.4 1016137
1 декабря, ср
ср100:00−13юв2596100 1.4 1012167
03:00−10ююв2896100 2.5 1007351
06:00−7зюз4994100 0.9 1005786
09:00−8зюз3795100 1.5 1004561
12:00−8з3694100 0.4 1004643
15:00−8зсз3694100 0.9 1005593
18:00−10зсз2795100 0.3 1009404
21:00−12сз499290 0.3 1013486